Tracking 31028 objects as of 17-Jul-2025
HD Live streaming from Space Station
objects crossing your sky now

STARLINK-32834

Track STARLINK-32834 now!
10-day predictions
STARLINK-32834 is classified as:


NORAD ID: 62875
Int'l Code: 2025-022X
Perigee: 481.3 km
Apogee: 483.4 km
Inclination: 53.2 °
Period: 94.1 minutes
Semi major axis: 6853 km
RCS: Unknown
Launch date: February 1, 2025
Source: United States (US)
Launch site: AIR FORCE WESTERN TEST RANGE (AFWTR)
Your satellite tracking list
Your tracking list is empty




NASA's NSSDC Master Catalog

Two Line Element Set (TLE):
1 62875U 25022X   25197.91668981  .00000360  00000-0  24280-4 0  9990
2 62875  53.1603 144.7054 0001471  93.0522 243.7491 15.30201042  5954
Source of the keplerian elements: AFSPC